Погода в Большом Чирклее

Россия / Ульяновская область     53°08′43″N   47°00′38″E
темп.,
°C
ветер,
м/с
пор.,
м/с
влажн.,
%
обл.,
%
осадки,
мм/ч
давл.,
гПа
погр.,
м
17 июня, чт
чт1701:00+18ссз512945 0.0 1012368
04:00+16с5119533 0.0 1014358
07:00+16с411865 0.0 1015446
10:00+19ссв69580 0.0 1017959
13:00+21ссв67520 0.0 10191485
16:00+22с57540 0.0 10191582
19:00+19с48695 0.0 1020527
22:00+14с38835 0.0 1022162
18 июня, пт
пт1801:00+13ссз38845 0.0 1023149
04:00+12с3982100 0.0 1024177
07:00+14ссв498147 0.0 1025357
10:00+17ссв57580 0.0 10261164
13:00+19ссв56490 0.0 10261509
16:00+19ссв454953 0.0 10261508
19:00+18св35670 0.0 1026348
22:00+13всв22785 0.0 102715
19 июня, сб
сб1901:00+11всв007868 0.0 102810
04:00+10сз11792 0.0 102910
07:00+14сз11740 0.0 1029103
10:00+19ссз11585 0.0 1028638
13:00+22зсз12485 0.0 10271114
16:00+24ссз2347100 0.0 10261302
19:00+22сз24685 0.0 1025178
22:00+17зсз33840 0.0 102626
20 июня, вс
вс2001:00+15зсз33920 0.0 102633
04:00+15зсз33930 0.0 102641
07:00+18сз34860 0.0 1026165
10:00+23сз33670 0.0 1025656
13:00+26ссз33550 0.0 10241366
16:00+26с34550 0.0 10231426
19:00+25ссз23690 0.0 1023144
22:00+20ссв22850 0.0 102316
21 июня, пн
пн2101:00+18с11850 0.0 102311
04:00+17ссз118858 0.0 102311
07:00+20с1183100 0.0 102380
10:00+24ссв11684 0.0 1023599
13:00+27в11532 0.0 10221371
16:00+28всв12490 0.0 10211612
19:00+26с24680 0.0 1021146
22:00+21ссз227620 0.0 102111